Simultaneous Nadir Overpasses (SNOs) Predictions

Prediction of SNOs between GOES-14 and NPP Satellite Orbit:

Table of predicted SNOs for the next 14.0 days since TLE Epoch: 6/11/2022
Index Date Time (GOES-14) GOES-14 Lat,Lon NPP Lat,Lon Distance(km) Time Diff (sec)
1 06/12/2022 08:36:10 -0.07,-104.48 0.68,-107.95 395.15 80
2 06/13/2022 08:20:06 -0.06,-104.48 -0.27,-103.41 121.65 80
3 06/14/2022 20:39:26 0.09,-104.75 -0.80,-108.75 456.03 80
4 06/15/2022 20:23:23 0.08,-104.75 0.21,-104.22 60.12 80
5 06/18/2022 08:23:47 -0.09,-104.49 0.04,-104.95 53.63 80
6 06/19/2022 08:07:44 -0.08,-104.50 -0.97,-100.43 463.41 80
7 06/20/2022 20:27:04 0.11,-104.77 -0.09,-105.76 113.14 80
8 06/21/2022 20:11:00 0.09,-104.77 0.86,-101.22 403.72 80
9 06/23/2022 08:30:09 -0.13,-104.52 0.34,-106.50 226.28 80
10 06/24/2022 08:14:06 -0.11,-104.52 -0.67,-101.97 290.88 80
